[[{"header":{"parameterUnit":"m.s-1","parameterCategory":1,"la1":30.2991,"la2":30.254,"lo1":-89.0895,"lo2":-89.0444,"dx":0.0017,"dy":0.0017,"nx":28,"ny":28,"refTime":"2022-11-18T15:00:00:Z","depth":0,"parameterNumber":2,"parameterNumberName":"U-component_of_WINDS"},"data":[0,0,0,0,0,0,0,0,0,0,0,0,0,0,0,0,0,0,0,0,0,0,0,0,0,0,0,0,0,0,0,0,0,0,0,0,0,0,0,0,0,0,0,0,0,0,0,0,0,0,0,0,0,0,0,0,0,0,-5.2298,-5.23,0,-5.2466,-5.2468,-5.247,-5.2381,-5.2376,-5.2372,-5.2367,-5.2538,-5.2547,-5.2556,0,0,0,0,0,0,0,0,0,0,0,0,0,-5.1896,-5.1904,-5.2298,-5.23,-5.2302,-5.2466,-5.2468,-5.2471,-5.2381,-5.2376,-5.237,-5.2365,-5.2535,-5.2546,-5.2556,0,0,0,0,0,0,0,0,0,0,0,0,0,-5.2068,-5.1906,-5.2297,-5.2277,-5.2277,-5.2466,-5.2469,-5.2471,-5.2383,-5.2376,-5.2369,-5.2363,-5.2532,-5.2545,-5.2558,-5.2775,0,0,-5.2598,-5.2604,0,0,0,0,0,0,0,0,-5.2058,-5.2083,-5.2278,-5.2279,-5.2279,-5.2396,-5.2389,-5.2573,-5.2384,-5.2343,-5.2367,-5.2359,-5.2496,-5.2512,-5.2558,-5.2783,-5.2791,-5.2599,-5.2607,-5.2613,-5.2617,0,0,0,0,0,0,0,-5.2047,-5.2075,-5.2364,-5.2281,-5.2282,-5.2259,-5.2276,-5.2424,-5.2455,-5.2346,-5.234,-5.2361,-5.2495,-5.2546,-5.2562,-5.2793,-5.2599,-5.2611,-5.2619,-5.2624,-5.3204,-5.3211,0,0,0,0,0,0,-5.2036,-5.2066,-5.2359,-5.2369,-5.215,-5.2272,-5.2291,-5.2365,-5.2454,-5.2461,-5.2367,-5.2356,-5.2527,-5.2546,-5.2567,-5.2828,-5.2613,-5.2625,-5.2633,-5.3197,-5.3206,-5.3214,0,0,0,0,0,0,-5.2028,-5.2063,-5.2352,-5.2216,-5.2251,-5.2286,-5.237,-5.2372,-5.2423,-5.2469,-5.2474,-5.2413,-5.2522,-5.2549,-5.2724,-5.2833,-5.2631,-5.2643,-5.3188,-5.3199,-5.321,-5.3351,0,0,0,0,0,0,-5.2017,-5.2061,-5.2145,-5.2219,-5.2259,-5.2508,-5.2377,-5.238,-5.2446,-5.2434,-5.2514,-5.2521,-5.2519,-5.2705,-5.2737,-5.2847,-5.2653,-5.3178,-5.3193,-5.3206,-5.3337,-5.3365,-5.339,0,0,0,0,0,-5.2003,-5.2177,-5.2149,-5.2185,-5.2364,-5.2514,-5.2537,-5.2532,-5.2455,-5.2539,-5.2569,-5.2518,-5.2815,-5.2724,-5.2759,-5.2875,-5.3171,-5.3189,-5.3205,-5.3325,-5.336,-5.339,0,0,0,0,0,0,-5.2114,-5.2187,-5.2156,-5.236,-5.2432,-5.2499,-5.2605,-5.2569,-5.2663,-5.2648,-5.2637,-5.2656,-5.2838,-5.2873,-5.277,-5.3089,-5.2981,-5.3006,-5.306,-5.3094,-5.312,-5.3108,-5.2664,0,0,0,0,0,-5.2163,-5.2279,-5.2335,-5.251,-5.2547,-5.257,-5.2635,-5.2625,-5.2698,-5.2728,-5.277,-5.2843,-5.2952,-5.3025,-5.3128,-5.3341,-5.3357,-5.3437,-5.3464,-5.3486,-5.3508,-5.3623,-5.3659,-5.3269,-5.3269,-5.3269,0,0,-5.2264,-5.2318,-5.2392,-5.2534,-5.2588,-5.2708,-5.2596,-5.2728,-5.2816,-5.2747,-5.2916,-5.295,-5.303,-5.3225,-5.3313,-5.326,-5.3619,-5.3507,-5.3524,-5.3535,-5.3644,-5.3681,-5.3714,-5.3281,-5.3279,-5.3277,0,0,-5.251,-5.2562,-5.2713,-5.277,-5.2853,-5.2867,-5.2903,-5.2976,-5.2996,-5.3165,-5.3115,-5.322,-5.3409,-5.3468,-5.3523,-5.379,-5.3747,-5.3824,-5.3964,-5.4076,-5.4107,-5.4134,-5.423,-5.4265,-5.3845,-5.3846,-5.3846,0,-5.2625,-5.2805,-5.2795,-5.2931,-5.2995,-5.2938,-5.309,-5.3145,-5.3258,-5.3303,-5.3242,-5.3478,-5.3528,-5.3736,-5.3801,-5.3847,-5.3888,-5.3815,-5.4104,-5.4131,-5.4156,-5.4247,-5.4283,-5.3855,-5.3854,-5.3853,-5.3852,0,-5.2942,-5.3067,-5.3179,-5.329,-5.3366,-5.351,-5.3521,-5.3599,-5.3582,-5.3602,-5.3774,-5.3832,-5.3946,-5.3994,-5.3978,-5.42,-5.4165,-5.4104,-5.3996,-5.4202,-5.4288,-5.4322,-5.3867,-5.3864,-5.3861,-5.3859,0,0,-5.3264,-5.3368,-5.3409,-5.3459,-5.3546,-5.3643,-5.3783,-5.3895,-5.3962,-5.4041,-5.4158,-5.4319,-5.4264,-5.4326,-5.4316,-5.4414,-5.4623,-5.4342,-5.4343,-5.4392,-5.4871,-5.4916,-5.4957,-5.4594,-5.4601,-5.4606,-5.4864,0,-5.3516,-5.3763,-5.3758,-5.3987,-5.4102,-5.4049,-5.4171,-5.4238,-5.426,-5.436,-5.4384,-5.4498,-5.4416,-5.4453,-5.4548,-5.4577,-5.4719,-5.4558,-5.4703,-5.4708,-5.4686,-5.5002,-5.5051,-5.5291,-5.4897,-5.4903,-5.4907,0,-5.3844,-5.3935,-5.4175,-5.4246,-5.4294,-5.4404,-5.4506,-5.4603,-5.4676,-5.4685,-5.4755,-5.4729,-5.4871,-5.4757,-5.4952,-5.4843,-5.4902,-5.4925,-5.4934,-5.4948,-5.4821,-5.5025,-5.5368,-5.5405,-5.4959,-5.4955,-5.4951,0,-5.4055,-5.4238,-5.4405,-5.4449,-5.4535,-5.4614,-5.4653,-5.472,-5.4788,-5.4876,-5.492,-5.5024,-5.5081,-5.5161,-5.5164,-5.5081,-5.5361,-5.5247,-5.5372,-5.5372,-5.5434,-5.5431,-5.5793,-5.5471,-5.547,-5.547,-5.5469,0,-5.4338,-5.4487,-5.4501,-5.4605,-5.477,-5.4762,-5.4926,-5.4958,-5.5018,-5.5125,-5.5085,-5.5187,-5.5184,-5.5287,-5.529,-5.5451,-5.5476,-5.5487,-5.5487,-5.5492,-5.5491,-5.5531,-5.5514,-5.5479,-5.5477,-5.5475,-5.5474,0,-5.4603,-5.4618,-5.4798,-5.4864,-5.4884,-5.5004,-5.506,-5.5158,-5.5175,-5.5312,-5.5344,-5.5372,-5.5491,-5.5502,-5.564,-5.5642,-5.5837,-5.5817,-5.5812,-5.5809,-5.5933,-5.5922,-5.6335,-5.6389,-5.6031,-5.6035,-5.6037,0,-5.4783,-5.4897,-5.4976,-5.5045,-5.5089,-5.5202,-5.5271,-5.5267,-5.534,-5.5432,-5.5519,-5.5634,-5.5726,-5.5919,-5.5952,-5.6057,-5.604,-5.6177,-5.6056,-5.6057,-5.6043,-5.6036,-5.6048,-5.6201,-5.6205,-5.6208,-5.6211,0,-5.5101,-5.5103,-5.5204,-5.5308,-5.5391,-5.5473,-5.5549,-5.5608,-5.5613,-5.5697,-5.5819,-5.5891,-5.6032,-5.6147,-5.625,-5.6289,-5.6252,-5.6249,-5.6283,-5.629,-5.6283,-5.6289,-5.5878,-5.624,-5.6237,-5.6235,-5.6233,-5.6232,-5.5329,-5.5428,-5.5499,-5.5613,-5.5669,-5.5741,-5.5837,-5.5866,-5.5968,-5.6083,-5.6074,-5.6209,-5.6279,-5.6414,-5.6461,-5.6565,-5.6519,-5.6569,-5.6582,-5.6594,-5.6608,-5.6266,-5.6584,-5.6583,-5.6582,-5.6582,-5.6581,0,-5.5645,-5.5688,-5.5793,-5.5901,-5.599,-5.5947,-5.6029,-5.6107,-5.6226,-5.6295,-5.6386,-5.6526,-5.6637,-5.6678,-5.6786,-5.6862,-5.6848,-5.6891,-5.6885,-5.6895,-5.6643,-5.6602,-5.6901,-5.6901,-5.69,-5.69,-5.69,-5.69,-5.582,-5.5985,-5.5995,-5.6187,-5.6228,-5.6361,-5.6411,-5.6477,-5.6532,-5.669,-5.6783,-5.6809,-5.6866,-5.6978,-5.7078,-5.7087,-5.7128,-5.7179,-5.7181,-5.6945,-5.6913,-5.6882,-5.6844,-5.7188,-5.7189,-5.7425,-5.7427,-5.7429]},{"header":{"parameterUnit":"m.s-1","parameterCategory":1,"la1":30.2991,"la2":30.254,"lo1":-89.0895,"lo2":-89.0444,"dx":0.0017,"dy":0.0017,"nx":28,"ny":28,"refTime":"2022-11-18T15:00:00:Z","depth":0,"parameterNumber":3,"parameterNumberName":"V-component_of_WINDS"},"data":[0,0,0,0,0,0,0,0,0,0,0,0,0,0,0,0,0,0,0,0,0,0,0,0,0,0,0,0,0,0,0,0,0,0,0,0,0,0,0,0,0,0,0,0,0,0,0,0,0,0,0,0,0,0,0,0,0,0,-4.4252,-4.4252,0,-4.4253,-4.4253,-4.4253,-4.4159,-4.4157,-4.4154,-4.4152,-4.4154,-4.4156,-4.4158,0,0,0,0,0,0,0,0,0,0,0,0,0,-4.417,-4.4172,-4.4252,-4.4252,-4.4252,-4.4253,-4.4253,-4.4253,-4.4159,-4.4156,-4.4153,-4.4151,-4.4153,-4.4156,-4.4158,0,0,0,0,0,0,0,0,0,0,0,0,0,-4.4192,-4.4173,-4.4252,-4.4206,-4.4202,-4.4253,-4.4253,-4.4253,-4.416,-4.4156,-4.4153,-4.4149,-4.4152,-4.4155,-4.4159,-4.4255,0,0,-4.417,-4.4171,0,0,0,0,0,0,0,0,-4.4191,-4.4195,-4.4213,-4.4209,-4.4205,-4.4202,-4.4224,-4.4254,-4.4161,-4.4176,-4.4152,-4.4147,-4.4173,-4.4174,-4.4183,-4.4255,-4.4255,-4.417,-4.4172,-4.4174,-4.4175,0,0,0,0,0,0,0,-4.4189,-4.4194,-4.4253,-4.4213,-4.4208,-4.4185,-4.4184,-4.4229,-4.4195,-4.4174,-4.4168,-4.4169,-4.417,-4.4179,-4.4182,-4.4255,-4.417,-4.4173,-4.4175,-4.4176,-4.4403,-4.4407,0,0,0,0,0,0,-4.4194,-4.4194,-4.4253,-4.4253,-4.4188,-4.4189,-4.4188,-4.4207,-4.4194,-4.4189,-4.4172,-4.4164,-4.4175,-4.4178,-4.4182,-4.4291,-4.4174,-4.4177,-4.4179,-4.44,-4.4404,-4.4409,0,0,0,0,0,0,-4.4193,-4.42,-4.4252,-4.4221,-4.4226,-4.4195,-4.4216,-4.4209,-4.4218,-4.4193,-4.4186,-4.4188,-4.4172,-4.4177,-4.4237,-4.429,-4.4178,-4.4182,-4.4395,-4.4401,-4.4406,-4.4513,0,0,0,0,0,0,-4.4191,-4.42,-4.4237,-4.4223,-4.4228,-4.4308,-4.422,-4.4211,-4.4224,-4.4214,-4.4206,-4.4201,-4.417,-4.4232,-4.424,-4.4293,-4.4184,-4.439,-4.4398,-4.4405,-4.4505,-4.4522,-4.4537,0,0,0,0,0,-4.4188,-4.4268,-4.4239,-4.4247,-4.4273,-4.4311,-4.4314,-4.4276,-4.4229,-4.4265,-4.4248,-4.4201,-4.4283,-4.4239,-4.4247,-4.4302,-4.4386,-4.4396,-4.4404,-4.4498,-4.4519,-4.4537,0,0,0,0,0,0,-4.4291,-4.4265,-4.4233,-4.4311,-4.4314,-4.4295,-4.434,-4.43,-4.4317,-4.4308,-4.426,-4.4259,-4.4326,-4.432,-4.4271,-4.4393,-4.4326,-4.4337,-4.4395,-4.4415,-4.443,-4.443,-4.4187,0,0,0,0,0,-4.4322,-4.4355,-4.4331,-4.4402,-4.4405,-4.4372,-4.4388,-4.4358,-4.4359,-4.436,-4.4348,-4.4351,-4.4377,-4.4396,-4.4418,-4.4504,-4.45,-4.4545,-4.4561,-4.4575,-4.4585,-4.4627,-4.4647,-4.4437,-4.4437,-4.4437,0,0,-4.4388,-4.4378,-4.4402,-4.4422,-4.4421,-4.4455,-4.4374,-4.4415,-4.444,-4.4366,-4.4422,-4.4413,-4.4413,-4.4486,-4.4517,-4.4483,-4.4641,-4.4586,-4.4597,-4.4599,-4.4638,-4.4658,-4.4676,-4.4443,-4.4442,-4.4441,0,0,-4.4525,-4.4521,-4.4578,-4.4578,-4.4577,-4.4554,-4.4568,-4.4555,-4.4546,-4.46,-4.4545,-4.4574,-4.4621,-4.4623,-4.463,-4.4765,-4.4722,-4.4774,-4.4858,-4.49,-4.4916,-4.493,-4.4977,-4.4995,-4.4784,-4.4784,-4.4784,0,-4.4607,-4.4656,-4.4613,-4.4657,-4.4666,-4.46,-4.4657,-4.4659,-4.4666,-4.4674,-4.4636,-4.4691,-4.4687,-4.4758,-4.479,-4.4799,-4.4812,-4.4775,-4.4917,-4.4931,-4.4944,-4.4988,-4.5006,-4.479,-4.479,-4.4789,-4.4788,0,-4.4756,-4.4791,-4.4838,-4.4844,-4.4859,-4.491,-4.4873,-4.4894,-4.4862,-4.4844,-4.4899,-4.4891,-4.491,-4.4925,-4.4896,-4.4992,-4.497,-4.4925,-4.4857,-4.4971,-4.5011,-4.5028,-4.4799,-4.4797,-4.4795,-4.4794,0,0,-4.4959,-4.4939,-4.4956,-4.4957,-4.495,-4.4976,-4.5023,-4.504,-4.5058,-4.5064,-4.5102,-4.5141,-4.5099,-4.5107,-4.5077,-4.5114,-4.5219,-4.5064,-4.5063,-4.5092,-4.5323,-4.5356,-4.5376,-4.5191,-4.5194,-4.5196,-4.5322,0,-4.509,-4.5168,-4.5129,-4.5212,-4.5243,-4.5179,-4.5219,-4.5219,-4.5202,-4.5226,-4.5208,-4.5236,-4.5179,-4.5183,-4.5217,-4.52,-4.5265,-4.519,-4.5224,-4.5226,-4.5226,-4.5398,-4.5433,-4.5553,-4.5338,-4.5341,-4.5343,0,-4.5254,-4.5266,-4.5351,-4.5335,-4.5346,-4.5383,-4.5395,-4.5419,-4.5416,-4.5402,-4.541,-4.537,-4.5414,-4.5347,-4.5406,-4.5356,-4.5367,-4.5361,-4.5364,-4.5366,-4.5291,-4.5403,-4.559,-4.5608,-4.5367,-4.5366,-4.5364,0,-4.5392,-4.5428,-4.5483,-4.5486,-4.547,-4.5497,-4.5491,-4.5485,-4.5497,-4.5508,-4.5515,-4.5531,-4.554,-4.5553,-4.5518,-4.5473,-4.5582,-4.5512,-4.5571,-4.5572,-4.5596,-4.5595,-4.5787,-4.5606,-4.5605,-4.5605,-4.5605,0,-4.5542,-4.5597,-4.5544,-4.5578,-4.5637,-4.5591,-4.565,-4.5638,-4.5632,-4.5662,-4.5609,-4.5638,-4.5591,-4.5616,-4.5589,-4.5642,-4.5647,-4.5635,-4.5628,-4.564,-4.5641,-4.5646,-4.5637,-4.561,-4.5609,-4.5608,-4.5607,0,-4.5706,-4.5673,-4.5728,-4.5707,-4.5703,-4.5747,-4.5729,-4.5759,-4.5738,-4.5776,-4.5783,-4.575,-4.5776,-4.5743,-4.5766,-4.5748,-4.5819,-4.5799,-4.582,-4.5814,-4.5874,-4.5868,-4.6075,-4.61,-4.5904,-4.5906,-4.5907,0,-4.5804,-4.5843,-4.5825,-4.5841,-4.5838,-4.5864,-4.5876,-4.5832,-4.5846,-4.5845,-4.5875,-4.5896,-4.5911,-4.5955,-4.5934,-4.5951,-4.5931,-4.6002,-4.5933,-4.5943,-4.593,-4.5928,-4.5931,-4.6016,-4.6019,-4.6021,-4.6022,0,-4.598,-4.5961,-4.5979,-4.5991,-4.6006,-4.6014,-4.6018,-4.6034,-4.5988,-4.6007,-4.6032,-4.6043,-4.6065,-4.6087,-4.6098,-4.6092,-4.605,-4.6044,-4.6058,-4.6071,-4.608,-4.6075,-4.5857,-4.6039,-4.6038,-4.6036,-4.6035,-4.6035,-4.6112,-4.6144,-4.6135,-4.6157,-4.6155,-4.6159,-4.6185,-4.6167,-4.6186,-4.62,-4.6174,-4.6205,-4.62,-4.621,-4.6209,-4.6233,-4.6202,-4.6223,-4.6228,-4.6234,-4.6242,-4.6077,-4.6235,-4.6234,-4.6234,-4.6234,-4.6233,0,-4.6285,-4.6275,-4.6296,-4.6301,-4.6318,-4.6275,-4.6277,-4.6294,-4.6321,-4.632,-4.6334,-4.6362,-4.6382,-4.6362,-4.6378,-4.6401,-4.6382,-4.6406,-4.6404,-4.6403,-4.627,-4.6255,-4.6421,-4.6421,-4.6421,-4.6421,-4.6421,-4.6421,-4.6376,-4.6426,-4.6406,-4.6455,-4.6445,-4.6474,-4.6478,-4.6482,-4.648,-4.6513,-4.6529,-4.6514,-4.6505,-4.6519,-4.6536,-4.6529,-4.6537,-4.6568,-4.6555,-4.6431,-4.6413,-4.6395,-4.6381,-4.6571,-4.6571,-4.6686,-4.6687,-4.6688]}]]